Location: Battersea Observatory
(44.4318°N, 76.3841°W)
Time: 22:46:47
(UTC-04:00)

Tiros 1 despin weight - Pass Details

Date: 22 January 2022
Orbit: 592 x 639 km, 48.2° (Epoch: 25 May)

Event Time Altitude Azimuth Distance (km) Brightness Sun altitude
Rises 23:46:55 0° 291° (WNW) 2,938 - -64.2°
Reaches altitude 10° 23:49:21 10° 283° (WNW) 2,030 - -64.3°
Maximum altitude 23:53:42 39° 215° (SW) 959 - -64.5°
Drops below altitude 10° 23:58:03 10° 147° (SSE) 2,024 - -64.7°
Sets 00:00:28 0° 140° (SE) 2,927 - -64.8°
